Погода в Нуэво-Ларедо

Мексика     27°29′10″N   99°30′42″W
темп.,
°C
ветер,
м/с
пор.,
м/с
влажн.,
%
обл.,
%
осадки,
мм/ч
давл.,
гПа
погр.,
м
6 мая, чт
чт601:00+23вюв58670 0.0 1018355
04:00+21вюв36690 0.0 1017252
07:00+20в36740 0.0 1019220
10:00+25в45510 0.0 1021823
13:00+31в45340 0.0 10201769
16:00+34всв54230 0.0 10172442
19:00+32всв76230 0.0 10162468
22:00+25вюв811530 0.0 1019659
7 мая, пт
пт701:00+22вюв596370 0.0 1020385
04:00+21юв3667100 0.0 1020270
07:00+19юв347092 0.0 1021156
10:00+24вюв564278 0.0 1021702
13:00+31юв55212 0.0 10181690
16:00+34юв67160 0.0 10152435
19:00+32юв99220 0.0 10132347
22:00+25юв10146679 0.0 1014714
8 мая, сб
сб801:00+23юв7138223 0.0 1015712
04:00+22юв7138829 0.0 1013626
07:00+22юв6118760 0.0 1013607
10:00+27ююв9126438 0.1 10121117
13:00+33ююв9104097 0.1 10101680
16:00+36ююв8830100 0.0 10062102
19:00+35ююв91030100 0.0 10041955
22:00+27юв121758100 0.0 1006781
9 мая, вс
вс901:00+25ююв91672100 0.0 1007784
04:00+24ююв9167662 0.0 1005664
07:00+24ююв613765 0.0 1006559
10:00+29ююв67525 0.0 1007715
13:00+35зсз33300 0.0 10061647
16:00+40сз34160 0.0 10032826
19:00+39с321368 0.0 10022104
22:00+30ююв915563 0.0 1005455
10 мая, пн
пн1001:00+27юв81468100 0.0 1005499
04:00+26ююв81473100 0.0 1005486
07:00+25ююв712815 0.0 1006371
10:00+31ю675410 0.0 1007724
13:00+37ююв673399 0.0 10061518
16:00+40ююв7726100 0.0 10032362
19:00+39юв98281 0.0 10032611
22:00+29ю711575 0.0 1005524